Location: Sydney
(46.1500°N, 60.1670°W)
Time: 01:07:09
(UTC-03:00)

Iridium 90 - Visible Passes

Search period start: 17 October 2017 00:00
Search period end: 27 October 2017 00:00
Orbit: 747 x 750 km, 86.4° (Epoch: 16 October)

Date Brightness Start Highest point End Pass type
(mag) Time Alt. Az. Time Alt. Az. Time Alt. Az.
17 Oct 5.9 06:38:21 10° N 06:43:25 68° E 06:48:28 10° SSE visible
17 Oct 5.8 19:33:03 10° SSW 19:38:05 68° W 19:43:09 10° N visible
18 Oct 7.4 05:56:38 10° NNE 06:01:11 32° ENE 06:05:43 10° SE visible
18 Oct 5.5 18:51:07 10° SSE 18:56:04 57° E 19:01:02 10° N visible
18 Oct 8.1 20:33:00 10° WSW 20:36:35 19° WNW 20:40:10 10° NNW visible
19 Oct 8.5 05:15:39 10° NNE 05:18:44 16° ENE 05:21:48 10° ESE visible
19 Oct 6.9 19:49:27 10° SSW 19:54:10 38° W 19:58:55 10° N visible
20 Oct 6.2 06:12:19 10° N 06:17:19 56° E 06:22:18 10° SSE visible
20 Oct 5.6 19:06:56 10° S 19:11:59 82° W 19:17:06 10° N visible
20 Oct 8.7 20:51:39 10° W 20:52:58 11° WNW 20:54:18 10° NW visible
21 Oct 7.7 05:30:45 10° NNE 05:35:02 27° ENE 05:39:18 10° SE visible
21 Oct 5.7 18:25:12 10° SSE 18:30:01 47° E 18:34:52 10° NNE visible
21 Oct 7.9 20:06:26 10° SW 20:10:23 23° WNW 20:14:22 10° NNW visible
22 Oct 8.6 04:50:08 10° NE 04:52:31 13° ENE 04:54:54 10° E visible
22 Oct 5.4 06:28:14 10° N 06:33:20 84° W 06:38:24 10° S visible
22 Oct 6.6 19:23:11 10° SSW 19:28:03 46° W 19:32:56 10° N visible
23 Oct 6.6 05:46:19 10° N 05:51:12 46° E 05:56:04 10° SSE visible
23 Oct 5.4 18:40:52 10° S 18:45:55 83° E 18:51:01 10° N visible
23 Oct 8.6 20:24:19 10° W 20:26:44 13° WNW 20:29:11 10° NW visible
24 Oct 7.9 05:04:54 10° NNE 05:08:52 22° ENE 05:12:49 10° SE visible
24 Oct 5.7 06:44:22 10° NNW 06:49:15 47° W 06:54:05 10° SSW visible
24 Oct 7.6 19:39:56 10° SW 19:44:13 27° WNW 19:48:31 10° NNW visible
25 Oct 8.7 04:25:03 10° NE 04:26:17 11° ENE 04:27:31 10° E visible
25 Oct 5.5 06:02:09 10° N 06:07:16 81° E 06:12:20 10° S visible
25 Oct 6.2 18:56:58 10° SSW 19:01:56 57° W 19:06:56 10° N visible
26 Oct 6.9 05:20:21 10° NNE 05:25:05 38° E 05:29:48 10° SSE visible
26 Oct 6.3 07:00:47 10° NNW 07:05:01 27° W 07:09:15 10° SW visible
26 Oct 8.4 19:57:25 10° WSW 20:00:31 16° WNW 20:03:38 10° NNW visible
